Location: Livorno
(43.5500°N, 10.3170°E)
Time: 16:44:42
(UTC+01:00)

Envisat - Pass Details

Date: 31 October 2020
Orbit: 764 x 766 km, 98.1° (Epoch: 30 November)

Event Time Altitude Azimuth Distance (km) Brightness Sun altitude
Rises 18:26:20 0° 200° (SSW) 3,219 6.6 -14.2°
Reaches altitude 10° 18:29:05 10° 215° (SW) 2,298 6.0 -14.7°
Maximum altitude 18:33:05 23° 267° (W) 1,578 5.6 -15.4°
Drops below altitude 10° 18:37:06 10° 320° (NW) 2,311 6.0 -16.1°
Sets 18:39:53 0° 334° (NNW) 3,242 6.5 -16.6°
